Location: Gull Harbor
(47.1000°N, 122.9000°W)
Time: 20:13:05
(UTC-07:00)

STARLINK-2651 - Pass Details

Date: 01 August 2021
Orbit: 546 x 548 km, 53.1° (Epoch: 24 September)

Event Time Altitude Azimuth Distance (km) Brightness Sun altitude
Rises 21:28:25 0° 292° (WNW) 2,725 9.0 -7.3°
Reaches altitude 10° 21:31:05 10° 275° (W) 1,826 7.3 -7.7°
Maximum altitude 21:34:09 20° 227° (SW) 1,289 5.6 -8.1°
Drops below altitude 10° 21:37:13 10° 179° (S) 1,816 5.9 -8.5°
Enters shadow 21:38:38 - 169° (SSE) 2,270 6.3 -8.7°
